CHIBUOYS 000
TTAA00 KLOT 271100

MARINE OBSERVATIONS FOR LAKE MICHIGAN
NATIONAL WEATHER SERVICE CHICAGO/ROMEOVILLE IL
500 AM CST SAT DEC 27 2014


...COASTAL INLAND STATIONS ETC...
  
CITY           SKY/WX    TMP DP  RH WIND       PRES   REMARKS
GARY AIRPORT   CLOUDY    48  43  81 S17       29.99F                  
CHICAGO MIDWAY CLOUDY    48  45  89 S13       29.96F                  
WHEELING       CLOUDY    47  43  86 S12       29.96F                  
WAUKEGAN       CLOUDY    46  42  86 S13       29.93F                  
KENOSHA        MOCLDY    45  42  89 S12       29.92F                  
RACINE         PTCLDY    42  39  89 S7        29.93F                  
MILWAUKEE      CLOUDY    45  41  86 S9        29.91F                  
BENTON HARBOR  CLOUDY    45  44  97 S9        29.99F                  

...BUOY REPORTS...
  
STATION/POSITION SKY/WX   TEMP    WIND        VSBY  WAVE
                          AIR SEA DIR/SP/G          HT/PER
                          (F)     (DEG/KT/KT) (MI)  (FT/S)
45002 45.3N 86.4 NOT AVBL
45007 42.7N 87.0 NOT AVBL
45170 41.8N 87.0 NOT AVBL
45029 42.9N 86.3 NOT AVBL
45161 43.2N 86.4 NOT AVBL
45024 44.0N 86.6 NOT AVBL

...LAKESIDE REPORTS...
  
STATION/POSITION SKY/WX   TEMP    WIND        VSBY  WAVE
                          AIR SEA DIR/SP/G          HT/PER
                          (F)     (DEG/KT/KT) (MI)  (FT/S)
WAUKEGAN HARBOR            43     170/ 15/ 16
CHICAGO CRIB               46     200/ 20/ 25
BURNHAM HARBOR             46     180/ 13/ 15
CALUMET                    46     180/  8/ 15
BURNS HARBOR     NOT AVBL
MICHIGAN CITY              45     160/ 10/ 14
ST. JOSEPH                 46     170/  4/ 11
SOUTH HAVEN                48     170/ 10/ 14
HOLLAND                           160/ 15/ 18
MUSKEGON                   41     180/ 15/ 16
LUDINGTON                  44     180/  4/  8
BIG SABLE LIGHT            42     160/ 10/ 13
MANISTEE HARBOR            39     160/  8/ 13
GRAND TRAVERSE L           38      CALM  /  3
MACKINAW CITY              36     180/  3/  3
NAUBINWAY                  32      20/  3/  3
PORT INLAND                32      10/  2/  6
FAIRPORT                   32      50/  4/  8
NORTHPORT PIER             35      50/  5/  6
SISTER BAY                        100/  2/  5
ALGOMA                             80/  7/  7
KEWAUNEE                   38      30/  2/  4
SHEBOYGAN                  39 39  340/  1/  2
PORT WASHINGTON            38     110/  2/  3
MILWAUKEE                  40     150/  8/  9
KENOSHA                    39     180/ 11/ 13
$$
  

USA.gov is the U.S. government's official web portal to all federal, state and local government web resources and services.
  • Web Site Owner:
  • National Weather Service
  • Chicago, IL Weather Forecast Office
  • 333 West University Drive
  • Romeoville, IL 60446
  • 815-834-1435 8am-8pm
  • Page Author: LOT Webmaster
  • Web Master's E-mail: w-lot.webmaster@noaa.gov
  • Page last modified: 2-Sep-2010 4:41 PM UTC